Hourly Data Report for October 31, 2016

All times are specified in Local Standard Time (LST). Add 1 hour to adjust for Daylight Saving Time where and when it is observed.

POND INLET A
NUNAVUT

72°41'22.000" N
77°58'08.000" W
61.60 m
2403206
71095
YIO

Download Data

Hourly Data (October 2016)
Hourly Data Report for October 31, 2016
Temp Definition
°C
Dew Point Temp Definition
°C
Rel Hum Definition
%
Wind Dir Definition
10's deg

Wind Spd Definition
km/h
Visibility Definition
km
Stn Press Definition
kPa
Hmdx Definition


Wind Chill Definition


Weather Definition


TIME
00:00 Legend Double Dagger -6.8 -11.6 69 8 21 16.1 99.98   -14 LegendNANA
01:00 Legend Double Dagger -6.8 -10.9 73   0 16.1 100.00     LegendNANA
02:00 Legend Double Dagger -5.1 -11.1 63 7 11 16.1 99.95   -10 LegendNANA
03:00 Legend Double Dagger -4.7 -9.0 72 5 26 16.1 99.86   -12 Snow
04:00 Legend Double Dagger -4.4 -10.7 62 5 35 16.1 99.76   -13 LegendNANA
05:00 Legend Double Dagger -4.3 -9.4 68 5 17 16.1 99.78   -10 LegendNANA
06:00 Legend Double Dagger -4.0 -9.5 66 7 21 16.1 99.72   -10 LegendNANA
07:00 Legend Double Dagger -3.9 -9.5 65 7 21 16.1 99.62   -10 LegendNANA
08:00 Legend Double Dagger -4.3 -9.5 67 17 5 16.1 99.54   -6 LegendNANA
09:00 Legend Double Dagger -3.9 -8.6 70   0 16.1 99.45     LegendNANA
10:00 Legend Double Dagger -4.4 -5.7 91   0 4.0 99.37     Snow
11:00 Legend Double Dagger -3.9 -5.2 91 8 5 4.0 99.22   -6 Snow
12:00 Legend Double Dagger -3.5 -4.1 96 4 13 0.8 99.10   -8 Moderate Snow
13:00 Legend Double Dagger -3.6 -4.0 97 6 15 1.6 98.95   -9 Snow
14:00 Legend Double Dagger -4.2 -4.7 96 LegendMM 4 2.0 98.83   -6 Snow
15:00 Legend Double Dagger -4.5 -4.8 98 23 17 14.5 98.65   -10 Snow
16:00 Legend Double Dagger -4.3 -5.0 95 22 18 6.4 98.52   -10 Snow
17:00 Legend Double Dagger -3.7 -5.0 91 20 11 11.3 98.40   -8 Snow
18:00 Legend Double Dagger -5.1 -5.9 94 18 11 16.1 98.34   -10 Snow
19:00 Legend Double Dagger -5.7 -6.7 93 16 18 16.1 98.23   -12 Snow
20:00 Legend Double Dagger -5.7 -7.1 90 16 22 16.1 98.14   -13 LegendNANA
21:00 Legend Double Dagger -5.0 -6.1 92 16 24 3.2 98.08   -12 Snow
22:00 Legend Double Dagger -5.2 -6.0 94 15 32 1.6 98.00   -13 Snow
23:00 Legend Double Dagger -5.3 -6.5 91 16 34 9.7 97.97   -14 Snow

Notes on Data Quality.

Legend

  • E = Estimated
  • M = Missing
  • NA = Not Available
  • ‡ = Partner data that is not subject to review by the National Climate Archives
Date modified: